CW8845 Weather Reports


Display with metric or nautical units.
time (UTC)temp
F
wind
direction
speed
MPH
gust
MPH
rain 1hr
in
rain 24hr
in
rain mn
in
humidity
%
barometer
mb
20240621004623 84 220 1.0 5.0 0.00 0.00 0.00 10 1011.9
20240621003614 84 173 1.0 4.0 0.00 0.00 0.00 10 1011.9
20240621002630 85 224 3.0 6.0 0.00 0.00 0.00 10 1011.9
20240621001622 85 167 3.0 6.0 0.00 0.00 0.00 9 1011.9
20240621000616 86 197 2.0 7.0 0.00 0.00 0.00 9 1012.1
20240620235635 86 212 4.0 7.0 0.00 0.00 0.00 11 1012.1
20240620234624 86 207 4.0 8.0 0.00 0.00 0.00 9 1012.2
20240620233620 86 177 4.0 8.0 0.00 0.00 0.00 9 1012.4
20240620232631 86 217 4.0 9.0 0.00 0.00 0.00 8 1012.5
20240620231623 85 175 5.0 8.0 0.00 0.00 0.00 9 1012.6
20240620230635 86 235 5.0 8.0 0.00 0.00 0.00 10 1012.7
20240620225641 86 236 4.0 10.0 0.00 0.00 0.00 9 1012.8
20240620224633 87 194 5.0 9.0 0.00 0.00 0.00 9 1012.8
20240620223643 88 229 3.0 6.0 0.00 0.00 0.00 9 1012.9
20240620222613 87 306 3.0 10.0 0.00 0.00 0.00 10 1013.0
20240620221629 86 180 6.0 9.0 0.00 0.00 0.00 10 1013.2
20240620220620 85 234 5.0 10.0 0.00 0.00 0.00 9 1013.4
20240620215645 85 212 5.0 9.0 0.00 0.00 0.00 10 1013.4
20240620214616 85 238 6.0 10.0 0.00 0.00 0.00 10 1013.5
20240620213631 85 221 6.0 11.0 0.00 0.00 0.00 10 1013.6
20240620212623 85 178 7.0 11.0 0.00 0.00 0.00 10 1013.7
20240620211615 85 182 5.0 12.0 0.00 0.00 0.00 11 1013.8
20240620210613 86 198 5.0 11.0 0.00 0.00 0.00 11 1013.7
20240620205616 86 186 5.0 7.0 0.00 0.00 0.00 11 1013.8
20240620204628 86 60 3.0 7.0 0.00 0.00 0.00 11 1013.8
20240620203619 85 192 7.0 12.0 0.00 0.00 0.00 10 1014.1
20240620202615 85 241 4.0 9.0 0.00 0.00 0.00 10 1014.2
20240620201646 84 259 3.0 9.0 0.00 0.00 0.00 12 1014.3
20240620200616 84 348 3.0 8.0 0.00 0.00 0.00 12 1014.4
20240620195641 85 244 6.0 11.0 0.00 0.00 0.00 12 1014.5
20240620194616 84 237 3.0 5.0 0.00 0.00 0.00 13 1014.5
20240620193627 84 230 3.0 8.0 0.00 0.00 0.00 13 1014.5
20240620192618 84 317 2.0 8.0 0.00 0.00 0.00 14 1014.6
20240620191625 84 348 4.0 6.0 0.00 0.00 0.00 14 1014.7
20240620190619 83 229 3.0 6.0 0.00 0.00 0.00 14 1014.7
20240620185622 83 312 3.0 6.0 0.00 0.00 0.00 14 1014.7
20240620184633 82 298 2.0 8.0 0.00 0.00 0.00 14 1014.7
20240620183624 82 319 5.0 9.0 0.00 0.00 0.00 14 1014.9
20240620182620 82 355 4.0 6.0 0.00 0.00 0.00 14 1014.9
20240620181612 81 294 1.0 6.0 0.00 0.00 0.00 14 1015.1
20240620180613 80 282 3.0 6.0 0.00 0.00 0.00 14 1015.2
20240620175616 80 28 5.0 11.0 0.00 0.00 0.00 16 1015.1
20240620174612 79 330 2.0 6.0 0.00 0.00 0.00 16 1015.3
20240620173644 79 292 3.0 8.0 0.00 0.00 0.00 18 1015.4
20240620172615 78 338 4.0 9.0 0.00 0.00 0.00 18 1015.4
20240620171627 77 40 2.0 9.0 0.00 0.00 0.00 21 1015.4
20240620170639 77 342 4.0 9.0 0.00 0.00 0.00 19 1015.4
20240620165625 77 17 3.0 11.0 0.00 0.00 0.00 20 1015.5
20240620164616 76 311 4.0 8.0 0.00 0.00 0.00 20 1015.6
20240620163628 75 351 5.0 9.0 0.00 0.00 0.00 18 1015.7
20240620162622 74 355 5.0 10.0 0.00 0.00 0.00 20 1015.9
20240620161612 73 15 5.0 10.0 0.00 0.00 0.00 20 1016.0
20240620160623 72 22 5.0 10.0 0.00 0.00 0.00 21 1016.0
20240620155626 71 5 5.0 8.0 0.00 0.00 0.00 24 1016.1
20240620154621 70 355 4.0 9.0 0.00 0.00 0.00 26 1016.2
20240620153612 69 9 7.0 12.0 0.00 0.00 0.00 24 1016.2
20240620152622 68 330 4.0 12.0 0.00 0.00 0.00 26 1016.2
20240620151614 67 348 7.0 11.0 0.00 0.00 0.00 25 1016.2
20240620150630 67 15 7.0 12.0 0.00 0.00 0.00 26 1016.3
20240620145613 66 304 6.0 10.0 0.00 0.00 0.00 28 1016.3
20240620144623 65 49 5.0 11.0 0.00 0.00 0.00 29 1016.3
20240620143619 63 24 3.0 5.0 0.00 0.00 0.00 34 1016.2
20240620142630 62 15 3.0 5.0 0.00 0.00 0.00 35 1016.2
20240620141620 60 28 2.0 5.0 0.00 0.00 0.00 35 1016.2
20240620140652 59 14 2.0 5.0 0.00 0.00 0.00 36 1016.2
20240620135618 57 19 2.0 5.0 0.00 0.00 0.00 38 1016.2
20240620134627 56 10 2.0 4.0 0.00 0.00 0.00 39 1016.2
20240620133619 55 40 3.0 4.0 0.00 0.00 0.00 39 1016.2
20240620132631 54 33 1.0 4.0 0.00 0.00 0.00 41 1016.2
20240620131624 53 33 1.0 2.0 0.00 0.00 0.00 44 1016.2
20240620130615 52 33 2.0 4.0 0.00 0.00 0.00 41 1016.2
20240620125619 51 29 2.0 4.0 0.00 0.00 0.00 41 1016.1
20240620124629 51 348 2.0 3.0 0.00 0.00 0.00 43 1016.1
20240620123625 51 348 1.0 2.0 0.00 0.00 0.00 42 1016.1
20240620122637 51 348 1.0 4.0 0.00 0.00 0.00 42 1016.0
20240620121648 51 346 2.0 4.0 0.00 0.00 0.00 40 1015.9
20240620120622 50 25 2.0 3.0 0.00 0.00 0.00 41 1015.9
20240620115626 49 46 2.0 3.0 0.00 0.00 0.00 42 1016.0
20240620114620 49 46 3.0 4.0 0.00 0.00 0.00 41 1015.9
20240620113633 50 46 3.0 6.0 0.00 0.00 0.00 41 1015.9
20240620112622 50 11 2.0 4.0 0.00 0.00 0.00 42 1015.7
20240620111614 51 11 3.0 5.0 0.00 0.00 0.00 41 1015.6
20240620110630 50 35 2.0 4.0 0.00 0.00 0.00 42 1015.5
20240620105615 50 48 2.0 4.0 0.00 0.00 0.00 41 1015.5
20240620104627 50 27 2.0 5.0 0.00 0.00 0.00 40 1015.5
20240620103622 50 10 3.0 4.0 0.00 0.00 0.00 40 1015.5
20240620102614 50 28 2.0 4.0 0.00 0.00 0.00 39 1015.5
20240620101626 49 37 3.0 4.0 0.00 0.00 0.00 40 1015.4
20240620100618 50 46 2.0 4.0 0.00 0.00 0.00 42 1015.5
20240620095625 50 24 3.0 4.0 0.00 0.00 0.00 41 1015.4
20240620094616 50 36 3.0 5.0 0.00 0.00 0.00 41 1015.5
20240620093627 50 26 2.0 4.0 0.00 0.00 0.00 41 1015.5
20240620092639 50 43 2.0 5.0 0.00 0.00 0.00 40 1015.4
20240620091614 50 20 2.0 5.0 0.00 0.00 0.00 40 1015.5
20240620090625 51 346 2.0 4.0 0.00 0.00 0.00 40 1015.5
20240620085630 50 22 3.0 4.0 0.00 0.00 0.00 39 1015.6
20240620084621 50 21 1.0 3.0 0.00 0.00 0.00 41 1015.6
20240620083617 50 21 2.0 5.0 0.00 0.00 0.00 39 1015.6
20240620082627 51 17 2.0 4.0 0.00 0.00 0.00 41 1015.7
20240620081619 51 15 2.0 4.0 0.00 0.00 0.00 39 1015.7
20240620080612 51 5 2.0 4.0 0.00 0.00 0.00 39 1015.7
20240620075618 50 36 3.0 5.0 0.00 0.00 0.00 37 1015.8
20240620074628 50 46 2.0 4.0 0.00 0.00 0.00 37 1015.9
20240620073620 51 61 3.0 5.0 0.00 0.00 0.00 36 1015.9
20240620072617 52 44 2.0 5.0 0.00 0.00 0.00 36 1015.9
20240620071628 53 69 3.0 6.0 0.00 0.00 0.00 35 1015.9
20240620070620 54 26 3.0 8.0 0.00 0.00 0.00 34 1015.9
20240620065623 54 30 3.0 5.0 0.00 0.00 0.00 34 1015.9
20240620064618 54 34 2.0 6.0 0.00 0.00 0.00 35 1015.9
20240620063630 54 50 2.0 6.0 0.00 0.00 0.00 34 1015.9
20240620062641 55 22 2.0 5.0 0.00 0.00 0.00 35 1016.0
20240620061631 56 11 3.0 4.0 0.00 0.00 0.00 33 1016.0
20240620060650 57 5 2.0 5.0 0.00 0.00 0.00 31 1016.0
20240620055615 57 5 3.0 6.0 0.00 0.00 0.00 31 1015.9
20240620054623 56 10 4.0 6.0 0.00 0.00 0.00 30 1015.8
20240620053614 56 11 3.0 5.0 0.00 0.00 0.00 32 1015.8
20240620052624 56 21 2.0 6.0 0.00 0.00 0.00 33 1015.7
20240620051620 57 47 3.0 5.0 0.00 0.00 0.00 31 1015.9
20240620050630 58 45 2.0 5.0 0.00 0.00 0.00 29 1015.9
20240620045613 58 5 3.0 4.0 0.00 0.00 0.00 29 1015.8
20240620044625 58 78 2.0 3.0 0.00 0.00 0.00 29 1015.8
20240620043639 59 76 2.0 5.0 0.00 0.00 0.00 29 1015.7
20240620042628 61 46 3.0 6.0 0.00 0.00 0.00 27 1015.6
20240620041638 61 360 4.0 8.0 0.00 0.00 0.00 27 1015.5
20240620040629 61 355 5.0 9.0 0.00 0.00 0.00 26 1015.3
20240620035617 63 67 3.0 5.0 0.00 0.00 0.00 26 1015.3
20240620034624 64 343 4.0 8.0 0.00 0.00 0.00 23 1015.0
20240620033614 64 347 3.0 6.0 0.00 0.00 0.00 25 1014.9
20240620032626 66 304 3.0 5.0 0.00 0.00 0.00 23 1014.8
20240620031622 68 303 3.0 6.0 0.00 0.00 0.00 21 1014.7
20240620030613 68 319 11.0 14.0 0.00 0.00 0.00 20 1014.6
20240620025617 69 315 4.0 9.0 0.00 0.00 0.00 21 1014.5
20240620024613 69 355 4.0 10.0 0.00 0.00 0.00 21 1014.6
20240620023626 71 360 4.0 9.0 0.00 0.00 0.00 20 1014.6
20240620022618 72 341 4.0 10.0 0.00 0.00 0.00 20 1014.6
20240620021629 74 340 5.0 10.0 0.00 0.00 0.00 17 1014.5
20240620020625 76 306 4.0 9.0 0.00 0.00 0.00 13 1014.5
20240620015629 77 219 3.0 8.0 0.00 0.00 0.00 9 1014.2
20240620014641 77 221 4.0 10.0 0.00 0.00 0.00 8 1014.2
20240620013651 76 200 4.0 7.0 0.00 0.00 0.00 10 1014.1
20240620012625 77 165 6.0 10.0 0.00 0.00 0.00 9 1014.2
20240620011617 77 186 6.0 10.0 0.00 0.00 0.00 9 1014.1
20240620010629 78 164 4.0 12.0 0.00 0.00 0.00 7 1014.1
20240620005613 78 197 6.0 11.0 0.00 0.00 0.00 7 1014.0
20240620004646 78 189 5.0 10.0 0.00 0.00 0.00 7 1014.0